iso_date,epoch_date,Year,Hour,Min,DOY,POS_DOY,Lat,Lon,BP,Ts,Ta,has_bp,has_ts,has_ta,BuoyID,Buoy_Type,Buoy_Owner,Logistics,Hemisphere
2013-04-09T16:00:28Z,1365523229,2013,16,0,99.667,99.667,89.5732,-106.7712,1022.4,-18.6,-24.6,yes,yes,yes,300234011696880,Snow_Buoy,AWI-USIABP,unknown,North
2013-04-09T16:59:31Z,1365526771,2013,17,0,99.708,99.708,89.5732,-106.7712,1022.3,-17.0,-24.7,yes,yes,yes,300234011696880,Snow_Buoy,AWI-USIABP,unknown,North
2013-04-09T18:01:26Z,1365530486,2013,18,1,99.751,99.751,89.5688,-105.5694,1022.3,-16.2,-24.7,yes,yes,yes,300234011696880,Snow_Buoy,AWI-USIABP,unknown,North
2013-04-09T19:00:28Z,1365534029,2013,19,0,99.792,99.792,89.5688,-105.5694,1022.1,-15.6,-24.6,yes,yes,yes,300234011696880,Snow_Buoy,AWI-USIABP,unknown,North
2013-04-09T19:59:31Z,1365537571,2013,20,0,99.833,99.833,89.5688,-105.5694,1022.0,-15.3,-24.6,yes,yes,yes,300234011696880,Snow_Buoy,AWI-USIABP,unknown,North
2013-04-09T21:00:00Z,1365541200,2013,21,0,99.875,99.875,89.5652,-104.0782,1021.8,-15.0,-24.6,yes,yes,yes,300234011696880,Snow_Buoy,AWI-USIABP,unknown,North
2013-04-09T22:00:28Z,1365544829,2013,22,1,99.917,99.917,89.5652,-104.0782,1021.3,-14.9,-24.7,yes,yes,yes,300234011696880,Snow_Buoy,AWI-USIABP,unknown,North
2013-04-09T23:00:57Z,1365548458,2013,23,1,99.959,99.959,89.5652,-104.0782,1021.3,-14.9,-24.6,yes,yes,yes,300234011696880,Snow_Buoy,AWI-USIABP,unknown,North
2013-04-10T00:01:26Z,1365552086,2013,0,1,100.001,100.001,89.5616,-102.5082,1020.8,-14.8,-24.7,yes,yes,yes,300234011696880,Snow_Buoy,AWI-USIABP,unknown,North
2013-04-10T01:00:28Z,1365555629,2013,1,1,100.042,100.042,89.5616,-102.5082,1020.6,-14.8,-24.8,yes,yes,yes,300234011696880,Snow_Buoy,AWI-USIABP,unknown,North
2013-04-10T02:00:57Z,1365559258,2013,2,1,100.084,100.084,89.5616,-102.5082,1020.3,-14.8,-24.7,yes,yes,yes,300234011696880,Snow_Buoy,AWI-USIABP,unknown,North
2013-04-10T03:01:26Z,1365562886,2013,3,1,100.126,100.126,89.558,-101.0838,1020.1,-14.8,-24.4,yes,yes,yes,300234011696880,Snow_Buoy,AWI-USIABP,unknown,North
2013-04-10T04:00:28Z,1365566429,2013,4,1,100.167,100.167,89.558,-101.0838,1020.1,-14.7,-24.7,yes,yes,yes,300234011696880,Snow_Buoy,AWI-USIABP,unknown,North
2013-04-10T05:00:57Z,1365570058,2013,5,1,100.209,100.209,89.558,-101.0838,1019.9,-14.8,-25.0,yes,yes,yes,300234011696880,Snow_Buoy,AWI-USIABP,unknown,North
2013-04-10T06:01:26Z,1365573686,2013,6,1,100.251,100.251,89.5548,-99.5938,1019.6,-14.8,-24.8,yes,yes,yes,300234011696880,Snow_Buoy,AWI-USIABP,unknown,North
2013-04-10T07:00:28Z,1365577229,2013,7,1,100.292,100.292,89.5548,-99.5938,1019.1,-14.8,-25.0,yes,yes,yes,300234011696880,Snow_Buoy,AWI-USIABP,unknown,North
2013-04-10T07:59:31Z,1365580771,2013,8,0,100.333,100.333,89.5548,-99.5938,1018.8,-14.8,-25.2,yes,yes,yes,300234011696880,Snow_Buoy,AWI-USIABP,unknown,North
2013-04-10T09:00:00Z,1365584400,2013,9,0,100.375,100.375,89.5516,-97.8826,1018.5,-14.8,-25.3,yes,yes,yes,300234011696880,Snow_Buoy,AWI-USIABP,unknown,North
2013-04-10T09:57:36Z,1365587856,2013,9,58,100.415,100.415,89.5508,-97.3858,1018.2,-14.8,-25.1,yes,yes,yes,300234011696880,Snow_Buoy,AWI-USIABP,unknown,North
2013-04-10T11:00:57Z,1365591658,2013,11,1,100.459,100.459,89.5508,-97.3858,1017.8,-14.8,-24.9,yes,yes,yes,300234011696880,Snow_Buoy,AWI-USIABP,unknown,North
2013-04-10T12:01:26Z,1365595286,2013,12,1,100.501,100.501,89.5494,-96.3014,1017.3,-14.8,-24.1,yes,yes,yes,300234011696880,Snow_Buoy,AWI-USIABP,unknown,North
2013-04-10T13:00:28Z,1365598829,2013,13,1,100.542,100.542,89.5494,-96.3014,1016.8,-14.7,-23.7,yes,yes,yes,300234011696880,Snow_Buoy,AWI-USIABP,unknown,North
2013-04-10T14:00:57Z,1365602458,2013,14,1,100.584,100.584,89.5494,-96.3014,1016.4,-14.5,-24.1,yes,yes,yes,300234011696880,Snow_Buoy,AWI-USIABP,unknown,North
2013-04-10T15:00:00Z,1365606000,2013,15,0,100.625,100.625,89.548,-95.079,1015.8,-14.5,-23.7,yes,yes,yes,300234011696880,Snow_Buoy,AWI-USIABP,unknown,North
2013-04-10T16:00:28Z,1365609629,2013,16,1,100.667,100.667,89.548,-95.079,1015.1,-14.5,-24.5,yes,yes,yes,300234011696880,Snow_Buoy,AWI-USIABP,unknown,North
2013-04-10T17:00:57Z,1365613258,2013,17,1,100.709,100.709,89.548,-95.079,1014.6,-14.5,-24.5,yes,yes,yes,300234011696880,Snow_Buoy,AWI-USIABP,unknown,North
2013-04-10T18:01:26Z,1365616886,2013,18,1,100.751,100.751,89.5472,-93.9766,1014.3,-14.4,-24.6,yes,yes,yes,300234011696880,Snow_Buoy,AWI-USIABP,unknown,North
2013-04-10T19:00:28Z,1365620429,2013,19,1,100.792,100.792,89.5472,-93.9766,1014.1,-14.5,-24.8,yes,yes,yes,300234011696880,Snow_Buoy,AWI-USIABP,unknown,North
2013-04-10T19:59:31Z,1365623971,2013,20,0,100.833,100.833,89.5472,-93.9766,1013.7,-14.5,-25.0,yes,yes,yes,300234011696880,Snow_Buoy,AWI-USIABP,unknown,North
2013-04-10T21:00:00Z,1365627600,2013,21,0,100.875,100.875,89.5464,-92.796,1013.3,-14.6,-25.0,yes,yes,yes,300234011696880,Snow_Buoy,AWI-USIABP,unknown,North
2013-04-10T22:00:28Z,1365631229,2013,22,1,100.917,100.917,89.5464,-92.796,1012.8,-14.6,-24.3,yes,yes,yes,300234011696880,Snow_Buoy,AWI-USIABP,unknown,North
2013-04-10T22:59:31Z,1365634771,2013,23,0,100.958,100.958,89.5464,-92.796,1012.4,-14.6,-24.9,yes,yes,yes,300234011696880,Snow_Buoy,AWI-USIABP,unknown,North
2013-04-11T00:01:26Z,1365638486,2013,0,1,101.001,101.001,89.5446,-91.6642,1012.0,-14.6,-24.7,yes,yes,yes,300234011696880,Snow_Buoy,AWI-USIABP,unknown,North
2013-04-11T01:00:28Z,1365642029,2013,1,0,101.042,101.042,89.5446,-91.6642,1011.7,-14.5,-25.0,yes,yes,yes,300234011696880,Snow_Buoy,AWI-USIABP,unknown,North
2013-04-11T01:59:31Z,1365645571,2013,2,0,101.083,101.083,89.5446,-91.6642,1011.3,-14.5,-25.0,yes,yes,yes,300234011696880,Snow_Buoy,AWI-USIABP,unknown,North
2013-04-11T03:00:00Z,1365649200,2013,3,0,101.125,101.125,89.543,-90.699,1011.0,-14.4,-25.3,yes,yes,yes,300234011696880,Snow_Buoy,AWI-USIABP,unknown,North
2013-04-11T04:00:28Z,1365652829,2013,4,0,101.167,101.167,89.543,-90.699,1010.7,-14.4,-25.3,yes,yes,yes,300234011696880,Snow_Buoy,AWI-USIABP,unknown,North
2013-04-11T04:59:31Z,1365656371,2013,5,0,101.208,101.208,89.543,-90.699,1010.2,-14.4,-26.0,yes,yes,yes,300234011696880,Snow_Buoy,AWI-USIABP,unknown,North
2013-04-11T06:00:00Z,1365660000,2013,6,0,101.25,101.25,89.5422,-89.8056,1009.9,-14.4,-25.9,yes,yes,yes,300234011696880,Snow_Buoy,AWI-USIABP,unknown,North
2013-04-11T07:00:28Z,1365663629,2013,7,0,101.292,101.292,89.5422,-89.8056,1009.7,-14.4,-25.9,yes,yes,yes,300234011696880,Snow_Buoy,AWI-USIABP,unknown,North
2013-04-11T07:59:31Z,1365667171,2013,8,0,101.333,101.333,89.5422,-89.8056,1009.9,-14.3,-25.1,yes,yes,yes,300234011696880,Snow_Buoy,AWI-USIABP,unknown,North
2013-04-11T09:00:00Z,1365670800,2013,9,0,101.375,101.375,89.541,-88.8988,1009.8,-14.2,-24.6,yes,yes,yes,300234011696880,Snow_Buoy,AWI-USIABP,unknown,North
2013-04-11T10:00:28Z,1365674429,2013,10,0,101.417,101.417,89.541,-88.8988,1009.6,-14.0,-24.2,yes,yes,yes,300234011696880,Snow_Buoy,AWI-USIABP,unknown,North
2013-04-11T10:59:31Z,1365677971,2013,11,0,101.458,101.458,89.541,-88.8988,1009.3,-13.8,-23.9,yes,yes,yes,300234011696880,Snow_Buoy,AWI-USIABP,unknown,North
2013-04-11T12:00:00Z,1365681600,2013,12,0,101.5,101.5,89.5396,-88.0312,1009.2,-13.7,-23.7,yes,yes,yes,300234011696880,Snow_Buoy,AWI-USIABP,unknown,North
2013-04-11T13:00:28Z,1365685229,2013,13,0,101.542,101.542,89.5396,-88.0312,1009.2,-13.6,-23.7,yes,yes,yes,300234011696880,Snow_Buoy,AWI-USIABP,unknown,North
2013-04-11T13:59:31Z,1365688771,2013,14,0,101.583,101.583,89.5396,-88.0312,1009.3,-13.6,-25.1,yes,yes,yes,300234011696880,Snow_Buoy,AWI-USIABP,unknown,North
2013-04-11T15:00:00Z,1365692400,2013,15,0,101.625,101.625,89.5386,-87.3764,1009.1,-13.7,-24.9,yes,yes,yes,300234011696880,Snow_Buoy,AWI-USIABP,unknown,North
2013-04-11T16:00:28Z,1365696029,2013,16,0,101.667,101.667,89.5386,-87.3764,1008.9,-13.7,-24.9,yes,yes,yes,300234011696880,Snow_Buoy,AWI-USIABP,unknown,North
2013-04-11T16:59:31Z,1365699571,2013,17,0,101.708,101.708,89.5386,-87.3764,1008.8,-13.7,-24.5,yes,yes,yes,300234011696880,Snow_Buoy,AWI-USIABP,unknown,North
2013-04-11T18:00:00Z,1365703200,2013,18,0,101.75,101.75,89.5372,-86.7838,1009.0,-13.7,-25.4,yes,yes,yes,300234011696880,Snow_Buoy,AWI-USIABP,unknown,North
2013-04-11T19:00:28Z,1365706829,2013,19,0,101.792,101.792,89.5372,-86.7838,1009.1,-13.8,-24.7,yes,yes,yes,300234011696880,Snow_Buoy,AWI-USIABP,unknown,North
2013-04-11T19:59:31Z,1365710371,2013,20,0,101.833,101.833,89.5372,-86.7838,1009.5,-13.8,-25.1,yes,yes,yes,300234011696880,Snow_Buoy,AWI-USIABP,unknown,North
2013-04-11T21:00:00Z,1365714000,2013,21,0,101.875,101.875,89.533,-86.087,1009.7,-13.9,-25.1,yes,yes,yes,300234011696880,Snow_Buoy,AWI-USIABP,unknown,North
2013-04-11T22:00:28Z,1365717629,2013,22,0,101.917,101.917,89.533,-86.087,1009.7,-13.9,-24.9,yes,yes,yes,300234011696880,Snow_Buoy,AWI-USIABP,unknown,North
2013-04-11T22:59:31Z,1365721171,2013,23,0,101.958,101.958,89.533,-86.087,1010.1,-14.0,-24.9,yes,yes,yes,300234011696880,Snow_Buoy,AWI-USIABP,unknown,North
2013-04-12T00:00:00Z,1365724800,2013,0,0,102.0,102.0,89.5256,-85.4108,1010.4,-14.0,-24.8,yes,yes,yes,300234011696880,Snow_Buoy,AWI-USIABP,unknown,North
2013-04-12T01:00:28Z,1365728429,2013,1,0,102.042,102.042,89.5256,-85.4108,1010.7,-14.1,-24.4,yes,yes,yes,300234011696880,Snow_Buoy,AWI-USIABP,unknown,North
2013-04-12T01:59:31Z,1365731971,2013,2,0,102.083,102.083,89.5256,-85.4108,1011.0,-14.1,-24.6,yes,yes,yes,300234011696880,Snow_Buoy,AWI-USIABP,unknown,North
2013-04-12T03:00:00Z,1365735600,2013,3,0,102.125,102.125,89.5178,-84.887,1011.3,-14.2,-24.6,yes,yes,yes,300234011696880,Snow_Buoy,AWI-USIABP,unknown,North
2013-04-12T04:00:28Z,1365739229,2013,4,0,102.167,102.167,89.5178,-84.887,1011.6,-14.2,-24.6,yes,yes,yes,300234011696880,Snow_Buoy,AWI-USIABP,unknown,North
2013-04-12T04:59:31Z,1365742771,2013,5,0,102.208,102.208,89.5178,-84.887,1012.0,-14.3,-24.6,yes,yes,yes,300234011696880,Snow_Buoy,AWI-USIABP,unknown,North
2013-04-12T06:01:26Z,1365746486,2013,6,1,102.251,102.251,89.5118,-84.239,1012.3,-14.3,-24.1,yes,yes,yes,300234011696880,Snow_Buoy,AWI-USIABP,unknown,North
2013-04-12T07:00:28Z,1365750029,2013,7,0,102.292,102.292,89.5118,-84.239,1013.0,-14.2,-24.1,yes,yes,yes,300234011696880,Snow_Buoy,AWI-USIABP,unknown,North
2013-04-12T07:59:31Z,1365753571,2013,8,0,102.333,102.333,89.5118,-84.239,1013.4,-14.2,-24.3,yes,yes,yes,300234011696880,Snow_Buoy,AWI-USIABP,unknown,North
2013-04-12T09:00:00Z,1365757200,2013,9,0,102.375,102.375,89.5066,-83.323,1013.6,-14.2,-23.9,yes,yes,yes,300234011696880,Snow_Buoy,AWI-USIABP,unknown,North
2013-04-12T10:00:28Z,1365760829,2013,10,0,102.417,102.417,89.5066,-83.323,1013.6,-14.2,-23.7,yes,yes,yes,300234011696880,Snow_Buoy,AWI-USIABP,unknown,North
2013-04-12T11:00:57Z,1365764458,2013,11,1,102.459,102.459,89.5066,-83.323,1013.7,-14.2,-23.7,yes,yes,yes,300234011696880,Snow_Buoy,AWI-USIABP,unknown,North
2013-04-12T12:01:26Z,1365768086,2013,12,1,102.501,102.501,89.5018,-82.041,1013.8,-14.2,-23.5,yes,yes,yes,300234011696880,Snow_Buoy,AWI-USIABP,unknown,North
2013-04-12T13:00:28Z,1365771629,2013,13,1,102.542,102.542,89.5018,-82.041,1013.7,-14.1,-23.0,yes,yes,yes,300234011696880,Snow_Buoy,AWI-USIABP,unknown,North
2013-04-12T14:00:57Z,1365775258,2013,14,1,102.584,102.584,89.5018,-82.041,1013.7,-14.1,-21.9,yes,yes,yes,300234011696880,Snow_Buoy,AWI-USIABP,unknown,North
2013-04-12T15:00:00Z,1365778800,2013,15,0,102.625,102.625,89.4992,-80.7148,1013.4,-13.9,-21.9,yes,yes,yes,300234011696880,Snow_Buoy,AWI-USIABP,unknown,North
2013-04-12T16:00:28Z,1365782429,2013,16,0,102.667,102.667,89.4992,-80.7148,1013.1,-13.8,-21.4,yes,yes,yes,300234011696880,Snow_Buoy,AWI-USIABP,unknown,North
2013-04-12T16:59:31Z,1365785971,2013,17,0,102.708,102.708,89.4992,-80.7148,1013.0,-13.8,-21.6,yes,yes,yes,300234011696880,Snow_Buoy,AWI-USIABP,unknown,North
2013-04-12T18:00:00Z,1365789600,2013,18,0,102.75,102.75,89.4958,-79.063,1012.7,-13.7,-21.1,yes,yes,yes,300234011696880,Snow_Buoy,AWI-USIABP,unknown,North
2013-04-12T19:00:28Z,1365793229,2013,19,1,102.792,102.792,89.4958,-79.063,1012.6,-13.6,-20.8,yes,yes,yes,300234011696880,Snow_Buoy,AWI-USIABP,unknown,North
2013-04-12T20:00:57Z,1365796858,2013,20,1,102.834,102.834,89.4958,-79.063,1012.4,-13.6,-20.6,yes,yes,yes,300234011696880,Snow_Buoy,AWI-USIABP,unknown,North
2013-04-12T21:01:26Z,1365800486,2013,21,1,102.876,102.876,89.4896,-77.072,1012.1,-13.4,-20.1,yes,yes,yes,300234011696880,Snow_Buoy,AWI-USIABP,unknown,North
2013-04-12T22:01:55Z,1365804115,2013,22,2,102.918,102.918,89.4896,-77.072,1011.9,-13.3,-20.0,yes,yes,yes,300234011696880,Snow_Buoy,AWI-USIABP,unknown,North
2013-04-12T23:02:24Z,1365807744,2013,23,2,102.96,102.96,89.4896,-77.072,1011.5,-13.2,-19.8,yes,yes,yes,300234011696880,Snow_Buoy,AWI-USIABP,unknown,North
2013-04-13T00:01:26Z,1365811286,2013,0,1,103.001,103.001,89.4824,-74.8258,1010.7,-13.1,-19.1,yes,yes,yes,300234011696880,Snow_Buoy,AWI-USIABP,unknown,North
2013-04-13T01:00:28Z,1365814829,2013,1,1,103.042,103.042,89.4824,-74.8258,1010.4,-13.0,-19.1,yes,yes,yes,300234011696880,Snow_Buoy,AWI-USIABP,unknown,North
2013-04-13T02:02:24Z,1365818544,2013,2,2,103.085,103.085,89.4824,-74.8258,1009.8,-12.9,-18.6,yes,yes,yes,300234011696880,Snow_Buoy,AWI-USIABP,unknown,North
2013-04-13T03:01:26Z,1365822086,2013,3,2,103.126,103.126,89.477,-72.5028,1009.4,-12.8,-17.5,yes,yes,yes,300234011696880,Snow_Buoy,AWI-USIABP,unknown,North
2013-04-13T04:00:28Z,1365825629,2013,4,1,103.167,103.167,89.477,-72.5028,1008.4,-12.6,-16.8,yes,yes,yes,300234011696880,Snow_Buoy,AWI-USIABP,unknown,North
2013-04-13T05:02:24Z,1365829344,2013,5,2,103.21,103.21,89.477,-72.5028,1008.0,-12.4,-16.0,yes,yes,yes,300234011696880,Snow_Buoy,AWI-USIABP,unknown,North
2013-04-13T06:01:26Z,1365832886,2013,6,2,103.251,103.251,89.4734,-70.078,1007.5,-12.2,-15.6,yes,yes,yes,300234011696880,Snow_Buoy,AWI-USIABP,unknown,North
2013-04-13T07:00:28Z,1365836429,2013,7,0,103.292,103.292,89.4734,-70.078,1007.0,-12.0,-15.5,yes,yes,yes,300234011696880,Snow_Buoy,AWI-USIABP,unknown,North
2013-04-13T07:59:31Z,1365839971,2013,8,0,103.333,103.333,89.4734,-70.078,1006.6,-11.8,-15.2,yes,yes,yes,300234011696880,Snow_Buoy,AWI-USIABP,unknown,North
2013-04-13T09:00:00Z,1365843600,2013,9,0,103.375,103.375,89.4702,-67.9296,1006.3,-11.7,-15.3,yes,yes,yes,300234011696880,Snow_Buoy,AWI-USIABP,unknown,North
2013-04-13T10:00:28Z,1365847229,2013,10,0,103.417,103.417,89.4702,-67.9296,1005.8,-11.6,-16.0,yes,yes,yes,300234011696880,Snow_Buoy,AWI-USIABP,unknown,North
2013-04-13T11:00:57Z,1365850858,2013,11,1,103.459,103.459,89.4702,-67.9296,1005.2,-11.6,-15.9,yes,yes,yes,300234011696880,Snow_Buoy,AWI-USIABP,unknown,North
2013-04-13T12:01:26Z,1365854486,2013,12,1,103.501,103.501,89.4658,-66.0836,1004.7,-11.5,-16.0,yes,yes,yes,300234011696880,Snow_Buoy,AWI-USIABP,unknown,North
2013-04-13T13:00:28Z,1365858029,2013,13,1,103.542,103.542,89.4658,-66.0836,1004.2,-11.5,-15.6,yes,yes,yes,300234011696880,Snow_Buoy,AWI-USIABP,unknown,North
2013-04-13T14:00:57Z,1365861658,2013,14,1,103.584,103.584,89.4658,-66.0836,1003.7,-11.4,-15.1,yes,yes,yes,300234011696880,Snow_Buoy,AWI-USIABP,unknown,North
2013-04-13T15:01:26Z,1365865286,2013,15,1,103.626,103.626,89.4598,-64.6446,1003.3,-11.2,-14.5,yes,yes,yes,300234011696880,Snow_Buoy,AWI-USIABP,unknown,North
2013-04-13T16:00:28Z,1365868829,2013,16,1,103.667,103.667,89.4598,-64.6446,1003.3,-11.0,-13.9,yes,yes,yes,300234011696880,Snow_Buoy,AWI-USIABP,unknown,North
2013-04-13T17:02:24Z,1365872544,2013,17,2,103.71,103.71,89.4598,-64.6446,1003.3,-10.9,-14.7,yes,yes,yes,300234011696880,Snow_Buoy,AWI-USIABP,unknown,North
2013-04-13T18:01:26Z,1365876086,2013,18,1,103.751,103.751,89.4526,-63.5726,1003.3,-10.7,-15.5,yes,yes,yes,300234011696880,Snow_Buoy,AWI-USIABP,unknown,North
2013-04-13T19:01:55Z,1365879715,2013,19,2,103.793,103.793,89.4526,-63.5726,1003.4,-10.7,-16.6,yes,yes,yes,300234011696880,Snow_Buoy,AWI-USIABP,unknown,North
2013-04-13T20:02:24Z,1365883344,2013,20,2,103.835,103.835,89.4526,-63.5726,1003.5,-10.7,-16.3,yes,yes,yes,300234011696880,Snow_Buoy,AWI-USIABP,unknown,North
2013-04-13T21:01:26Z,1365886886,2013,21,1,103.876,103.876,89.4438,-62.7518,1003.4,-10.7,-16.7,yes,yes,yes,300234011696880,Snow_Buoy,AWI-USIABP,unknown,North
2013-04-13T22:00:28Z,1365890429,2013,22,0,103.917,103.917,89.4438,-62.7518,1003.5,-10.7,-17.4,yes,yes,yes,300234011696880,Snow_Buoy,AWI-USIABP,unknown,North
2013-04-13T22:59:31Z,1365893971,2013,23,0,103.958,103.958,89.4438,-62.7518,1003.5,-10.8,-17.6,yes,yes,yes,300234011696880,Snow_Buoy,AWI-USIABP,unknown,North
2013-04-14T00:00:00Z,1365897600,2013,0,0,104.0,104.0,89.4336,-62.2016,1003.6,-10.8,-17.9,yes,yes,yes,300234011696880,Snow_Buoy,AWI-USIABP,unknown,North
2013-04-14T01:00:28Z,1365901229,2013,1,1,104.042,104.042,89.4336,-62.2016,1003.8,-10.9,-18.4,yes,yes,yes,300234011696880,Snow_Buoy,AWI-USIABP,unknown,North
2013-04-14T02:00:57Z,1365904858,2013,2,1,104.084,104.084,89.4336,-62.2016,1004.0,-10.9,-19.3,yes,yes,yes,300234011696880,Snow_Buoy,AWI-USIABP,unknown,North
2013-04-14T03:01:26Z,1365908486,2013,3,1,104.126,104.126,89.4232,-62.0378,1004.3,-11.0,-19.9,yes,yes,yes,300234011696880,Snow_Buoy,AWI-USIABP,unknown,North
2013-04-14T04:00:28Z,1365912029,2013,4,1,104.167,104.167,89.4232,-62.0378,1004.7,-11.1,-20.1,yes,yes,yes,300234011696880,Snow_Buoy,AWI-USIABP,unknown,North
2013-04-14T05:00:57Z,1365915658,2013,5,1,104.209,104.209,89.4232,-62.0378,1004.9,-11.1,-20.0,yes,yes,yes,300234011696880,Snow_Buoy,AWI-USIABP,unknown,North
2013-04-14T06:01:26Z,1365919286,2013,6,1,104.251,104.251,89.413,-62.1114,1005.0,-11.2,-19.1,yes,yes,yes,300234011696880,Snow_Buoy,AWI-USIABP,unknown,North
2013-04-14T07:01:55Z,1365922915,2013,7,2,104.293,104.293,89.413,-62.1114,1005.2,-11.1,-19.0,yes,yes,yes,300234011696880,Snow_Buoy,AWI-USIABP,unknown,North
2013-04-14T08:00:57Z,1365926458,2013,8,1,104.334,104.334,89.413,-62.1114,1005.4,-11.1,-19.0,yes,yes,yes,300234011696880,Snow_Buoy,AWI-USIABP,unknown,North
2013-04-14T09:01:26Z,1365930086,2013,9,1,104.376,104.376,89.403,-62.257,1005.6,-11.0,-19.5,yes,yes,yes,300234011696880,Snow_Buoy,AWI-USIABP,unknown,North
2013-04-14T10:00:28Z,1365933629,2013,10,1,104.417,104.417,89.403,-62.257,1006.0,-11.0,-19.1,yes,yes,yes,300234011696880,Snow_Buoy,AWI-USIABP,unknown,North
2013-04-14T11:00:57Z,1365937258,2013,11,1,104.459,104.459,89.403,-62.257,1006.6,-11.0,-20.6,yes,yes,yes,300234011696880,Snow_Buoy,AWI-USIABP,unknown,North
2013-04-14T12:01:26Z,1365940886,2013,12,1,104.501,104.501,89.3932,-62.4646,1006.9,-11.0,-21.2,yes,yes,yes,300234011696880,Snow_Buoy,AWI-USIABP,unknown,North
2013-04-14T13:00:28Z,1365944429,2013,13,1,104.542,104.542,89.3932,-62.4646,1006.9,-11.1,-21.4,yes,yes,yes,300234011696880,Snow_Buoy,AWI-USIABP,unknown,North
2013-04-14T14:00:57Z,1365948058,2013,14,1,104.584,104.584,89.3932,-62.4646,1007.4,-11.2,-21.4,yes,yes,yes,300234011696880,Snow_Buoy,AWI-USIABP,unknown,North
2013-04-14T15:00:00Z,1365951600,2013,15,0,104.625,104.625,89.3858,-62.6606,1007.8,-11.2,-21.7,yes,yes,yes,300234011696880,Snow_Buoy,AWI-USIABP,unknown,North
2013-04-14T16:00:28Z,1365955229,2013,16,0,104.667,104.667,89.3858,-62.6606,1008.1,-11.3,-21.9,yes,yes,yes,300234011696880,Snow_Buoy,AWI-USIABP,unknown,North
2013-04-14T16:59:31Z,1365958771,2013,17,0,104.708,104.708,89.3858,-62.6606,1008.3,-11.3,-22.0,yes,yes,yes,300234011696880,Snow_Buoy,AWI-USIABP,unknown,North
2013-04-14T18:00:00Z,1365962400,2013,18,0,104.75,104.75,89.3798,-62.8814,1008.3,-11.3,-22.0,yes,yes,yes,300234011696880,Snow_Buoy,AWI-USIABP,unknown,North
2013-04-14T19:00:28Z,1365966029,2013,19,0,104.792,104.792,89.3798,-62.8814,1008.8,-11.3,-21.9,yes,yes,yes,300234011696880,Snow_Buoy,AWI-USIABP,unknown,North
2013-04-14T19:59:31Z,1365969571,2013,20,0,104.833,104.833,89.3798,-62.8814,1009.1,-11.3,-22.1,yes,yes,yes,300234011696880,Snow_Buoy,AWI-USIABP,unknown,North
2013-04-14T21:00:00Z,1365973200,2013,21,0,104.875,104.875,89.3738,-63.0378,1009.2,-11.3,-21.9,yes,yes,yes,300234011696880,Snow_Buoy,AWI-USIABP,unknown,North
2013-04-14T22:00:28Z,1365976829,2013,22,0,104.917,104.917,89.3738,-63.0378,1009.5,-11.3,-21.8,yes,yes,yes,300234011696880,Snow_Buoy,AWI-USIABP,unknown,North
2013-04-14T22:59:31Z,1365980371,2013,23,0,104.958,104.958,89.3738,-63.0378,1009.7,-11.3,-21.9,yes,yes,yes,300234011696880,Snow_Buoy,AWI-USIABP,unknown,North
2013-04-15T00:00:00Z,1365984000,2013,0,0,105.0,105.0,89.369,-63.136,1009.8,-11.3,-21.9,yes,yes,yes,300234011696880,Snow_Buoy,AWI-USIABP,unknown,North
2013-04-15T01:00:28Z,1365987629,2013,1,0,105.042,105.042,89.369,-63.136,1009.8,-11.3,-21.3,yes,yes,yes,300234011696880,Snow_Buoy,AWI-USIABP,unknown,North
2013-04-15T01:59:31Z,1365991171,2013,2,0,105.083,105.083,89.369,-63.136,1010.0,-11.2,-21.4,yes,yes,yes,300234011696880,Snow_Buoy,AWI-USIABP,unknown,North
2013-04-15T03:00:00Z,1365994800,2013,3,0,105.125,105.125,89.3664,-63.1818,1010.1,-11.2,-21.4,yes,yes,yes,300234011696880,Snow_Buoy,AWI-USIABP,unknown,North
2013-04-15T04:00:28Z,1365998429,2013,4,0,105.167,105.167,89.3664,-63.1818,1010.5,-11.2,-21.3,yes,yes,yes,300234011696880,Snow_Buoy,AWI-USIABP,unknown,North
2013-04-15T04:59:31Z,1366001971,2013,5,0,105.208,105.208,89.3664,-63.1818,1010.7,-11.2,-21.1,yes,yes,yes,300234011696880,Snow_Buoy,AWI-USIABP,unknown,North
2013-04-15T06:00:00Z,1366005600,2013,6,0,105.25,105.25,89.3628,-63.2946,1011.1,-11.2,-20.6,yes,yes,yes,300234011696880,Snow_Buoy,AWI-USIABP,unknown,North
2013-04-15T07:00:28Z,1366009229,2013,7,0,105.292,105.292,89.3628,-63.2946,1011.6,-11.2,-20.8,yes,yes,yes,300234011696880,Snow_Buoy,AWI-USIABP,unknown,North
2013-04-15T08:00:57Z,1366012858,2013,8,1,105.334,105.334,89.3628,-63.2946,1012.2,-11.2,-20.8,yes,yes,yes,300234011696880,Snow_Buoy,AWI-USIABP,unknown,North
2013-04-15T09:00:00Z,1366016400,2013,9,0,105.375,105.375,89.3592,-63.4424,1012.9,-11.2,-20.7,yes,yes,yes,300234011696880,Snow_Buoy,AWI-USIABP,unknown,North
2013-04-15T10:00:28Z,1366020029,2013,10,1,105.417,105.417,89.3592,-63.4424,1013.3,-11.1,-20.4,yes,yes,yes,300234011696880,Snow_Buoy,AWI-USIABP,unknown,North
2013-04-15T11:00:57Z,1366023658,2013,11,1,105.459,105.459,89.3592,-63.4424,1013.6,-11.1,-20.1,yes,yes,yes,300234011696880,Snow_Buoy,AWI-USIABP,unknown,North
2013-04-15T12:00:00Z,1366027200,2013,12,0,105.5,105.5,89.353,-63.6272,1013.9,-11.1,-19.6,yes,yes,yes,300234011696880,Snow_Buoy,AWI-USIABP,unknown,North
2013-04-15T13:00:28Z,1366030829,2013,13,1,105.542,105.542,89.353,-63.6272,1014.4,-11.0,-19.2,yes,yes,yes,300234011696880,Snow_Buoy,AWI-USIABP,unknown,North
2013-04-15T14:00:57Z,1366034458,2013,14,1,105.584,105.584,89.353,-63.6272,1014.9,-11.0,-19.0,yes,yes,yes,300234011696880,Snow_Buoy,AWI-USIABP,unknown,North
2013-04-15T15:00:00Z,1366038000,2013,15,0,105.625,105.625,89.3444,-63.8864,1015.5,-10.9,-19.0,yes,yes,yes,300234011696880,Snow_Buoy,AWI-USIABP,unknown,North
2013-04-15T16:00:28Z,1366041629,2013,16,0,105.667,105.667,89.3444,-63.8864,1015.7,-10.9,-18.8,yes,yes,yes,300234011696880,Snow_Buoy,AWI-USIABP,unknown,North
2013-04-15T16:59:31Z,1366045171,2013,17,0,105.708,105.708,89.3444,-63.8864,1015.9,-10.8,-17.9,yes,yes,yes,300234011696880,Snow_Buoy,AWI-USIABP,unknown,North
2013-04-15T18:00:00Z,1366048800,2013,18,0,105.75,105.75,89.335,-64.2482,1016.0,-10.8,-17.4,yes,yes,yes,300234011696880,Snow_Buoy,AWI-USIABP,unknown,North
2013-04-15T19:00:28Z,1366052429,2013,19,0,105.792,105.792,89.335,-64.2482,1016.3,-10.7,-16.9,yes,yes,yes,300234011696880,Snow_Buoy,AWI-USIABP,unknown,North
2013-04-15T19:59:31Z,1366055971,2013,20,0,105.833,105.833,89.335,-64.2482,1016.5,-10.6,-16.6,yes,yes,yes,300234011696880,Snow_Buoy,AWI-USIABP,unknown,North
2013-04-15T21:00:00Z,1366059600,2013,21,0,105.875,105.875,89.322,-64.5566,1016.9,-10.6,-17.0,yes,yes,yes,300234011696880,Snow_Buoy,AWI-USIABP,unknown,North
2013-04-15T22:00:28Z,1366063229,2013,22,0,105.917,105.917,89.322,-64.5566,1017.0,-10.5,-17.9,yes,yes,yes,300234011696880,Snow_Buoy,AWI-USIABP,unknown,North
2013-04-15T22:59:31Z,1366066771,2013,23,0,105.958,105.958,89.322,-64.5566,1017.2,-10.5,-17.8,yes,yes,yes,300234011696880,Snow_Buoy,AWI-USIABP,unknown,North
2013-04-16T00:00:00Z,1366070400,2013,0,0,106.0,106.0,89.3068,-64.8286,1017.2,-10.5,-17.6,yes,yes,yes,300234011696880,Snow_Buoy,AWI-USIABP,unknown,North